| time (UTC) | temp F | wind direction | speed MPH | gust MPH | rain 1hr in | rain 24hr in | rain mn in | humidity % | barometer mb |
| 20260903043532 | 66 | 264 | 14.0 | 21.0 | 0.00 | 0.00 | 0.00 | 86 | |
| 20260903042540 | 66 | 243 | 13.0 | 24.0 | 0.00 | 0.00 | 0.00 | 86 | |
| 20260903041523 | 66 | 248 | 10.0 | 20.0 | 0.00 | 0.00 | 0.00 | 87 | |
| 20260903040528 | 66 | 219 | 13.0 | 19.0 | 0.00 | 0.00 | 0.00 | 87 | |
| 20260903035522 | 65 | 238 | 11.0 | 15.0 | 0.00 | 0.00 | 0.00 | 87 | |
| 20260903034526 | 65 | 234 | 9.0 | 13.0 | 0.00 | 0.00 | 0.00 | 86 | |
| 20260903033540 | 65 | 225 | 9.0 | 12.0 | 0.00 | 0.00 | 0.00 | 86 | |
| 20260903032523 | 65 | 223 | 9.0 | 14.0 | 0.00 | 0.00 | 0.00 | 85 | |
| 20260903031537 | 65 | 232 | 9.0 | 15.0 | 0.00 | 0.00 | 0.00 | 85 | |
| 20260903030521 | 65 | 217 | 9.0 | 12.0 | 0.00 | 0.00 | 0.00 | 85 | |
| 20260903025530 | 65 | 227 | 10.0 | 14.0 | 0.00 | 0.00 | 0.00 | 84 | |
| 20260903024534 | 66 | 215 | 10.0 | 15.0 | 0.00 | 0.00 | 0.00 | 84 | |
| 20260903023528 | 66 | 200 | 11.0 | 15.0 | 0.00 | 0.00 | 0.00 | 83 | |
| 20260903022531 | 66 | 250 | 9.0 | 15.0 | 0.00 | 0.00 | 0.00 | 83 | |
| 20260903021543 | 66 | 205 | 12.0 | 18.0 | 0.00 | 0.00 | 0.00 | 83 | |
| 20260903020528 | 66 | 227 | 11.0 | 16.0 | 0.00 | 0.00 | 0.00 | 82 | |
| 20260903015540 | 66 | 228 | 13.0 | 18.0 | 0.00 | 0.00 | 0.00 | 81 | |
| 20260903014523 | 66 | 232 | 13.0 | 18.0 | 0.00 | 0.00 | 0.00 | 80 | |
| 20260903013524 | 66 | 200 | 12.0 | 20.0 | 0.00 | 0.00 | 0.00 | 79 | |
| 20260903012536 | 66 | 227 | 10.0 | 18.0 | 0.00 | 0.00 | 0.00 | 78 | |
| 20260903011549 | 67 | 229 | 11.0 | 16.0 | 0.00 | 0.00 | 0.00 | 77 | |
| 20260903010533 | 67 | 230 | 9.0 | 18.0 | 0.00 | 0.00 | 0.00 | 77 | |
| 20260903005537 | 67 | 223 | 12.0 | 18.0 | 0.00 | 0.00 | 0.00 | 77 | |
| 20260903004530 | 67 | 206 | 12.0 | 19.0 | 0.00 | 0.00 | 0.00 | 77 | |
| 20260903003535 | 67 | 221 | 12.0 | 19.0 | 0.00 | 0.00 | 0.00 | 77 | |
| 20260903002545 | 66 | 205 | 13.0 | 22.0 | 0.00 | 0.00 | 0.00 | 77 | |
| 20260903001556 | 66 | 213 | 12.0 | 18.0 | 0.00 | 0.00 | 0.00 | 77 | |
| 20260903000537 | 66 | 212 | 11.0 | 16.0 | 0.00 | 0.00 | 0.00 | 77 | |
| 20260902235530 | 66 | 209 | 10.0 | 15.0 | 0.00 | 0.00 | 0.00 | 78 | |
| 20260902234603 | 65 | 202 | 11.0 | 16.0 | 0.00 | 0.00 | 0.00 | 78 | |
| 20260902233547 | 66 | 196 | 10.0 | 14.0 | 0.00 | 0.00 | 0.00 | 78 | |
| 20260902232557 | 66 | 215 | 11.0 | 15.0 | 0.00 | 0.00 | 0.00 | 78 | |
| 20260902231547 | 66 | 224 | 9.0 | 19.0 | 0.00 | 0.00 | 0.00 | 78 | |
| 20260902230532 | 66 | 216 | 14.0 | 20.0 | 0.00 | 0.00 | 0.00 | 78 | |
| 20260902225545 | 66 | 203 | 12.0 | 19.0 | 0.00 | 0.00 | 0.00 | 78 | |
| 20260902224527 | 65 | 213 | 12.0 | 19.0 | 0.00 | 0.00 | 0.00 | 79 | |
| 20260902223541 | 65 | 200 | 12.0 | 19.0 | 0.00 | 0.00 | 0.00 | 79 | |
| 20260902222525 | 65 | 215 | 10.0 | 15.0 | 0.00 | 0.00 | 0.00 | 79 | |
| 20260902221534 | 66 | 225 | 9.0 | 14.0 | 0.00 | 0.00 | 0.00 | 79 | |
| 20260902220537 | 66 | 232 | 12.0 | 21.0 | 0.00 | 0.00 | 0.00 | 77 | |
| 20260902215522 | 66 | 220 | 12.0 | 16.0 | 0.00 | 0.00 | 0.00 | 75 | |
| 20260902214554 | 66 | 247 | 13.0 | 18.0 | 0.00 | 0.00 | 0.00 | 75 | |
| 20260902213527 | 66 | 232 | 9.0 | 13.0 | 0.00 | 0.00 | 0.00 | 75 | |
| 20260902212530 | 66 | 219 | 9.0 | 13.0 | 0.00 | 0.00 | 0.00 | 75 | |
| 20260902211524 | 66 | 212 | 9.0 | 14.0 | 0.00 | 0.00 | 0.00 | 76 | |
| 20260902210529 | 66 | 207 | 10.0 | 14.0 | 0.00 | 0.00 | 0.00 | 76 | |
| 20260902205558 | 66 | 360 | 11.0 | 16.0 | 0.00 | 0.00 | 0.00 | 75 | |
| 20260902204550 | 66 | 220 | 13.0 | 26.0 | 0.00 | 0.00 | 0.00 | 75 | |
| 20260902203531 | 66 | 221 | 13.0 | 21.0 | 0.00 | 0.00 | 0.00 | 75 | |
| 20260902202525 | 66 | 225 | 9.0 | 12.0 | 0.00 | 0.00 | 0.00 | 75 | |
| 20260902201529 | 66 | 224 | 9.0 | 13.0 | 0.00 | 0.00 | 0.00 | 75 | |
| 20260902200523 | 66 | 230 | 9.0 | 12.0 | 0.00 | 0.00 | 0.00 | 75 | |
| 20260902195526 | 66 | 216 | 8.0 | 12.0 | 0.00 | 0.00 | 0.00 | 75 | |
| 20260902194556 | 65 | 219 | 7.0 | 11.0 | 0.00 | 0.00 | 0.00 | 75 | |
| 20260902193548 | 65 | 218 | 8.0 | 11.0 | 0.00 | 0.00 | 0.00 | 75 | |
| 20260902192531 | 65 | 213 | 6.0 | 8.0 | 0.00 | 0.00 | 0.00 | 76 | |
| 20260902191546 | 65 | 224 | 7.0 | 10.0 | 0.00 | 0.00 | 0.00 | 75 | |
| 20260902190529 | 66 | 223 | 7.0 | 10.0 | 0.00 | 0.00 | 0.00 | 75 | |
| 20260902185533 | 66 | 219 | 7.0 | 11.0 | 0.00 | 0.00 | 0.00 | 74 | |
| 20260902184525 | 67 | 188 | 6.0 | 11.0 | 0.00 | 0.00 | 0.00 | 73 | |
| 20260902183526 | 67 | 232 | 7.0 | 11.0 | 0.00 | 0.00 | 0.00 | 72 | |
| 20260902182540 | 67 | 260 | 7.0 | 10.0 | 0.00 | 0.00 | 0.00 | 72 | |
| 20260902181544 | 67 | 213 | 8.0 | 11.0 | 0.00 | 0.00 | 0.00 | 71 | |
| 20260902180537 | 67 | 240 | 9.0 | 15.0 | 0.00 | 0.00 | 0.00 | 71 | |
| 20260902175550 | 68 | 225 | 9.0 | 16.0 | 0.00 | 0.00 | 0.00 | 71 | |
| 20260902174533 | 68 | 228 | 13.0 | 18.0 | 0.00 | 0.00 | 0.00 | 71 | |
| 20260902173547 | 68 | 228 | 11.0 | 16.0 | 0.00 | 0.00 | 0.00 | 72 | |
| 20260902172532 | 69 | 242 | 9.0 | 13.0 | 0.00 | 0.00 | 0.00 | 73 | |
| 20260902171531 | 69 | 246 | 10.0 | 19.0 | 0.00 | 0.00 | 0.00 | 73 | |
| 20260902170544 | 69 | 246 | 9.0 | 12.0 | 0.00 | 0.00 | 0.00 | 74 | |
| 20260902165537 | 69 | 291 | 9.0 | 15.0 | 0.00 | 0.00 | 0.00 | 74 | |
| 20260902164521 | 69 | 247 | 10.0 | 16.0 | 0.00 | 0.00 | 0.00 | 74 | |
| 20260902163526 | 69 | 224 | 10.0 | 16.0 | 0.00 | 0.00 | 0.00 | 75 | |
| 20260902162539 | 70 | 257 | 8.0 | 18.0 | 0.00 | 0.00 | 0.00 | 74 | |
| 20260902161522 | 70 | 271 | 11.0 | 19.0 | 0.00 | 0.00 | 0.00 | 74 | |
| 20260902160552 | 70 | 277 | 8.0 | 12.0 | 0.00 | 0.00 | 0.00 | 73 | |
| 20260902155543 | 70 | 255 | 9.0 | 15.0 | 0.00 | 0.00 | 0.00 | 72 | |
| 20260902154528 | 71 | 263 | 12.0 | 15.0 | 0.00 | 0.00 | 0.00 | 71 | |
| 20260902153541 | 71 | 287 | 8.0 | 12.0 | 0.00 | 0.00 | 0.00 | 72 | |
| 20260902152525 | 71 | 281 | 10.0 | 15.0 | 0.00 | 0.00 | 0.00 | 72 | |
| 20260902151538 | 71 | 254 | 10.0 | 13.0 | 0.00 | 0.00 | 0.00 | 73 | |
| 20260902150541 | 71 | 287 | 6.0 | 14.0 | 0.00 | 0.00 | 0.00 | 74 | |
| 20260902145550 | 70 | 296 | 9.0 | 13.0 | 0.00 | 0.00 | 0.00 | 76 | |
| 20260902144533 | 70 | 282 | 8.0 | 14.0 | 0.00 | 0.00 | 0.00 | 75 | |
| 20260902143526 | 69 | 270 | 9.0 | 14.0 | 0.00 | 0.00 | 0.00 | 76 | |
| 20260902142530 | 69 | 233 | 11.0 | 18.0 | 0.00 | 0.00 | 0.00 | 75 | |
| 20260902141543 | 70 | 269 | 10.0 | 14.0 | 0.00 | 0.00 | 0.00 | 73 | |
| 20260902140527 | 70 | 225 | 11.0 | 18.0 | 0.00 | 0.00 | 0.00 | 73 | |
| 20260902135540 | 70 | 238 | 9.0 | 13.0 | 0.00 | 0.00 | 0.00 | 72 | |
| 20260902134524 | 71 | 258 | 9.0 | 15.0 | 0.00 | 0.00 | 0.00 | 72 | |
| 20260902133555 | 71 | 237 | 10.0 | 15.0 | 0.00 | 0.00 | 0.00 | 72 | |
| 20260902132537 | 70 | 234 | 11.0 | 15.0 | 0.00 | 0.00 | 0.00 | 73 | |
| 20260902131551 | 70 | 242 | 9.0 | 12.0 | 0.00 | 0.00 | 0.00 | 73 | |
| 20260902130542 | 70 | 262 | 8.0 | 13.0 | 0.00 | 0.00 | 0.00 | 75 | |
| 20260902125527 | 70 | 239 | 10.0 | 15.0 | 0.00 | 0.00 | 0.00 | 75 | |
| 20260902124539 | 70 | 271 | 8.0 | 13.0 | 0.00 | 0.00 | 0.00 | 75 | |
| 20260902123523 | 70 | 200 | 9.0 | 13.0 | 0.00 | 0.00 | 0.00 | 75 | |
| 20260902122522 | 70 | 260 | 8.0 | 14.0 | 0.00 | 0.00 | 0.00 | 72 | |
| 20260902121535 | 70 | 281 | 10.0 | 14.0 | 0.00 | 0.00 | 0.00 | 72 | |
| 20260902120547 | 70 | 254 | 9.0 | 15.0 | 0.00 | 0.00 | 0.00 | 73 | |
| 20260902115532 | 69 | 252 | 8.0 | 14.0 | 0.00 | 0.00 | 0.00 | 76 | |
| 20260902114604 | 68 | 258 | 9.0 | 13.0 | 0.00 | 0.00 | 0.00 | 76 | |
| 20260902113527 | 68 | 252 | 9.0 | 13.0 | 0.00 | 0.00 | 0.00 | 76 | |
| 20260902112540 | 68 | 279 | 8.0 | 12.0 | 0.00 | 0.00 | 0.00 | 75 | |
| 20260902111525 | 68 | 289 | 10.0 | 13.0 | 0.00 | 0.00 | 0.00 | 77 | |
| 20260902110524 | 68 | 240 | 11.0 | 16.0 | 0.00 | 0.00 | 0.00 | 77 | |
| 20260902105537 | 68 | 252 | 9.0 | 15.0 | 0.00 | 0.00 | 0.00 | 79 | |
| 20260902104550 | 67 | 268 | 10.0 | 15.0 | 0.00 | 0.00 | 0.00 | 80 | |
| 20260902103534 | 67 | 278 | 10.0 | 14.0 | 0.00 | 0.00 | 0.00 | 80 | |
| 20260902102607 | 67 | 212 | 11.0 | 15.0 | 0.00 | 0.00 | 0.00 | 80 | |
| 20260902101551 | 67 | 246 | 10.0 | 14.0 | 0.00 | 0.00 | 0.00 | 80 | |
| 20260902100523 | 67 | 259 | 10.0 | 15.0 | 0.00 | 0.00 | 0.00 | 81 | |
| 20260902095523 | 67 | 254 | 11.0 | 15.0 | 0.00 | 0.00 | 0.00 | 80 | |
| 20260902094537 | 68 | 253 | 10.0 | 15.0 | 0.00 | 0.00 | 0.00 | 80 | |
| 20260902093542 | 68 | 258 | 10.0 | 15.0 | 0.00 | 0.00 | 0.00 | 81 | |
| 20260902092554 | 68 | 288 | 11.0 | 16.0 | 0.00 | 0.00 | 0.00 | 80 | |
| 20260902091547 | 68 | 282 | 9.0 | 13.0 | 0.00 | 0.00 | 0.00 | 82 | |
| 20260902090550 | 67 | 238 | 8.0 | 13.0 | 0.00 | 0.00 | 0.00 | 83 | |
| 20260902085559 | 67 | 242 | 9.0 | 13.0 | 0.00 | 0.00 | 0.00 | 83 | |
| 20260902084522 | 67 | 253 | 10.0 | 13.0 | 0.00 | 0.00 | 0.00 | 83 | |
| 20260902083536 | 66 | 252 | 8.0 | 12.0 | 0.00 | 0.00 | 0.00 | 85 | |
| 20260902082547 | 65 | 271 | 8.0 | 13.0 | 0.00 | 0.00 | 0.00 | 86 | |
| 20260902081532 | 65 | 257 | 9.0 | 11.0 | 0.00 | 0.00 | 0.00 | 86 | |
| 20260902080545 | 64 | 263 | 8.0 | 12.0 | 0.00 | 0.00 | 0.00 | 88 | |
| 20260902075549 | 63 | 253 | 9.0 | 12.0 | 0.00 | 0.00 | 0.00 | 88 | |
| 20260902074537 | 62 | 238 | 9.0 | 11.0 | 0.00 | 0.00 | 0.00 | 90 | |
| 20260902073541 | 62 | 246 | 8.0 | 11.0 | 0.00 | 0.00 | 0.00 | 90 | |
| 20260902072535 | 61 | 258 | 7.0 | 11.0 | 0.00 | 0.00 | 0.00 | 91 | |
| 20260902071539 | 60 | 250 | 7.0 | 10.0 | 0.00 | 0.00 | 0.00 | 91 | |
| 20260902070523 | 59 | 213 | 7.0 | 10.0 | 0.00 | 0.00 | 0.00 | 91 | |
| 20260902065535 | 59 | 234 | 7.0 | 11.0 | 0.00 | 0.00 | 0.00 | 92 | |
| 20260902064547 | 58 | 213 | 7.0 | 12.0 | 0.00 | 0.00 | 0.00 | 92 | |
| 20260902063532 | 58 | 220 | 8.0 | 11.0 | 0.00 | 0.00 | 0.00 | 92 | |
| 20260902062531 | 57 | 215 | 7.0 | 10.0 | 0.00 | 0.00 | 0.00 | 92 | |
| 20260902061604 | 57 | 202 | 7.0 | 10.0 | 0.00 | 0.00 | 0.00 | 92 | |
| 20260902060536 | 57 | 213 | 8.0 | 11.0 | 0.00 | 0.00 | 0.00 | 92 | |
| 20260902055549 | 57 | 221 | 7.0 | 10.0 | 0.00 | 0.00 | 0.00 | 92 | |
| 20260902054533 | 57 | 231 | 8.0 | 10.0 | 0.00 | 0.00 | 0.00 | 92 | |
| 20260902053537 | 56 | 212 | 8.0 | 11.0 | 0.00 | 0.00 | 0.00 | 92 | |
| 20260902052530 | 56 | 215 | 8.0 | 11.0 | 0.00 | 0.00 | 0.00 | 92 | |
| 20260902051531 | 56 | 213 | 7.0 | 10.0 | 0.00 | 0.00 | 0.00 | 92 | |
| 20260902050543 | 56 | 198 | 7.0 | 10.0 | 0.00 | 0.00 | 0.00 | 91 | |
| 20260902045555 | 55 | 220 | 5.0 | 7.0 | 0.00 | 0.00 | 0.00 | 91 | |
| 20260902044537 | 55 | 230 | 5.0 | 10.0 | 0.00 | 0.00 | 0.00 | 91 |